Aérodrome :
LOGIN :

S'inscrire | Disclaimer

   EN    FR    IT 

 










Légende :    VFR   VFR Marginal   IFR   IFR Intensif   IFR Très Intensif
Visi : 
Plafond : 
>= 8 km
>= 3000ft
5 à 8 km
1000 à 3000 ft
1500m à 5 km
500 à 1000 ft
800 à 1500m
200 à 500 ft
< 800m
< 200 ft
Symboles :   Orages  Brouillard  Fortes neiges  Fortes précipitations  Vent > 20 kt
SIGMETs :   Divers  Orages  Givrage  Turbulence  Onde Orograph.  Cendres Volcan.







- Altitude de l'aérodrome : 120 ft
- Code IATA : MME
- Voir les cartes d'approche


EGNV - Durham Tees valley

DERNIER METAR :
  • 241550Z 03011KT 9000 SCT011 13/09 Q1024

METARs EXPIRÉS :
  • 241520Z 04010KT 010V070 9000 SCT011 13/09 Q1024
  • 241450Z 02011KT 350V070 8000 SCT011 13/09 Q1024
  • 241350Z 04009KT 350V060 7000 BKN011 13/09 Q1025
  • 241320Z 04009KT 360V070 9000 BKN011 12/09 Q1025
  • 241250Z 05011KT 9000 BKN011 12/09 Q1025

TAF TAF EGNV
Valide du 24 à 12h jusqu'au 24 à 21h UTC


241104Z 2412/2421 03008KT 8000 BKN010
PROB40 2412/2420 9999 SCT014
ATIS : +44 9012 018 111
Pas de NOTAMs connus pour ce terrain.



MET'MAP, la Météo Aéronautique d'un coup d'oeil ! - Copyright ORBIFLY Décembre 2007 - Disclaimer

ORBIFLY MET'MAP TEAM :

Programmation & Développement : Alexandra Zaïnal
Conception & Développement : Baudouin d'Aumeries
Co-Programmation & Développement : Marc-Olivier Méhu
Soutien technique & logistique : Manuel Goepfert

Contact : metmap@orbifly.com




SOURCES & CREDITS :

   NOAA